Weather History for Telluride, CO

Change the Weather History Date:

Friday, December 6, 2013

  Actual Average Record
Temperature  
Mean Temperature 12 °F -  
Max Temperature 19 °F 32 °F 46 °F (2008)
Min Temperature 5 °F 15 °F -2 °F (2011)
Degree Days  
Heating Degree Days 53    
Moisture  
Dew Point -5 °F    
Average Humidity 47    
Maximum Humidity 66    
Minimum Humidity 30    
Precipitation  
Precipitation 0.00 in - - ()
Sea Level Pressure  
Sea Level Pressure 29.88 in    
Wind  
Wind Speed 2 mph (SE)    
Max Wind Speed 12 mph    
Max Gust Speed 17 mph    
Visibility 10 miles    
Events      
Averages and records for this station are not official NWS values.
T = Trace of Precipitation, MM = Missing Value Source: NWS Daily Summary

Daily Weather History Graph

Daily Weather History Graph

Search for Another Location

Airport:

Trip Planner

Search our weather history database for the weather conditions in past years. The results will help you decide how hot, cold, wet, or windy it might be!

Date:

Astronomy

Dec. 06, 2013 Rise Set
Actual Time 7:13 AM MST 4:52 PM MST
Civil Twilight 6:44 AM MST 5:21 PM MST
Nautical Twilight 6:11 AM MST 5:54 PM MST
Astronomical Twilight 5:39 AM MST 6:25 PM MST
Moon 10:23 AM MST (12/6) 9:24 PM MST (12/6)
Length of Visible Light 10h 36m
Length of Day
9h 38m
Waxing Crescent, 20% of the Moon is Illuminated
Dec 6
Waxing Crescent
Dec 9
First Quarter
Dec 17
Full
Dec 25
Last Quarter
Jan 1
New

Hourly Weather History & Observations

Time (MST) Temp. Windchill Dew Point Humidity Pressure Visibility Wind Dir Wind Speed Gust Speed Precip Events Conditions
12:15 AM 5.0 °F - -4.0 °F 66% 29.77 in 10.0 mi Calm Calm - N/A   Scattered Clouds
4:35 AM 5.0 °F - -5.8 °F 61% 29.77 in 10.0 mi Calm Calm - N/A   Scattered Clouds
4:55 AM 5.0 °F - -4.0 °F 66% 29.78 in 10.0 mi Calm Calm - N/A   Scattered Clouds
5:15 AM 6.8 °F - -5.8 °F 56% 29.79 in 10.0 mi Calm Calm - N/A   Clear
5:35 AM 6.8 °F - -5.8 °F 56% 29.79 in 10.0 mi Calm Calm - N/A   Clear
5:55 AM 5.0 °F -2.1 °F -5.8 °F 61% 29.79 in 10.0 mi ENE 3.5 mph - N/A   Clear
6:15 AM 5.0 °F -5.6 °F -5.8 °F 61% 29.80 in 10.0 mi East 5.8 mph - N/A   Clear
6:35 AM 5.0 °F -2.1 °F -5.8 °F 61% 29.81 in 10.0 mi East 3.5 mph - N/A   Clear
6:55 AM 5.0 °F - -7.6 °F 56% 29.81 in 10.0 mi Calm Calm - N/A   Clear
7:15 AM 5.0 °F - -7.6 °F 56% 29.82 in 10.0 mi Calm Calm - N/A   Scattered Clouds
7:35 AM 5.0 °F - -7.6 °F 56% 29.83 in 10.0 mi Calm Calm - N/A   Mostly Cloudy
7:55 AM 5.0 °F - -7.6 °F 56% 29.83 in 10.0 mi Calm Calm - N/A   Overcast
8:15 AM 5.0 °F - -7.6 °F 56% 29.85 in 10.0 mi Calm Calm - N/A   Overcast
8:35 AM 6.8 °F - -7.6 °F 52% 29.85 in 10.0 mi Calm Calm - N/A   Overcast
8:55 AM 8.6 °F - -5.8 °F 52% 29.85 in 10.0 mi Calm Calm - N/A   Mostly Cloudy
9:15 AM 8.6 °F 0.1 °F -5.8 °F 52% 29.86 in 10.0 mi East 4.6 mph - N/A   Scattered Clouds
9:35 AM 10.4 °F - -7.6 °F 44% 29.87 in 10.0 mi Calm Calm - N/A   Mostly Cloudy
9:55 AM 10.4 °F - -7.6 °F 44% 29.87 in 10.0 mi Calm Calm - N/A   Mostly Cloudy
10:15 AM 12.2 °F - -7.6 °F 41% 29.88 in 10.0 mi Calm Calm - N/A   Scattered Clouds
10:35 AM 12.2 °F - -5.8 °F 45% 29.88 in 10.0 mi Calm Calm - N/A   Mostly Cloudy
10:55 AM 14.0 °F - -5.8 °F 41% 29.88 in 10.0 mi Calm Calm - N/A   Overcast
11:15 AM 14.0 °F - -7.6 °F 38% 29.87 in 10.0 mi Calm Calm - N/A   Overcast
11:35 AM 14.0 °F - -9.4 °F 35% 29.87 in 10.0 mi Calm Calm - N/A   Overcast
11:55 AM 15.8 °F - -7.6 °F 35% 29.87 in 10.0 mi Calm Calm - N/A   Overcast
12:15 PM 17.6 °F 8.2 °F -7.6 °F 32% 29.87 in 10.0 mi West 6.9 mph - N/A   Overcast
12:35 PM 17.6 °F 12.3 °F -7.6 °F 32% 29.87 in 10.0 mi WNW 3.5 mph - N/A   Overcast
12:55 PM 17.6 °F 6.4 °F -7.6 °F 32% 29.86 in 10.0 mi SW 9.2 mph - N/A   Mostly Cloudy
1:15 PM 19.4 °F 8.6 °F -7.6 °F 30% 29.86 in 10.0 mi West 9.2 mph - N/A   Mostly Cloudy
1:35 PM 19.4 °F 9.5 °F -7.6 °F 30% 29.86 in 10.0 mi West 8.1 mph 17.3 mph N/A   Mostly Cloudy
1:55 PM 19.4 °F 7.2 °F -5.8 °F 33% 29.86 in 10.0 mi West 11.5 mph 16.1 mph N/A   Overcast
2:15 PM 19.4 °F 9.5 °F -5.8 °F 33% 29.86 in 10.0 mi WNW 8.1 mph - N/A   Overcast
2:35 PM 19.4 °F 7.9 °F -4.0 °F 36% 29.86 in 10.0 mi West 10.4 mph - N/A   Mostly Cloudy
2:55 PM 19.4 °F 8.6 °F -4.0 °F 36% 29.87 in 10.0 mi West 9.2 mph - N/A   Scattered Clouds
3:15 PM 19.4 °F 10.4 °F -4.0 °F 36% 29.88 in 10.0 mi West 6.9 mph - N/A   Clear
3:35 PM 19.4 °F 10.4 °F -4.0 °F 36% 29.88 in 10.0 mi SW 6.9 mph - N/A   Clear
4:55 PM 15.8 °F - -5.8 °F 38% 29.90 in 10.0 mi Calm Calm - N/A   Scattered Clouds
5:15 PM 14.0 °F 5.1 °F -5.8 °F 41% 29.91 in 10.0 mi East 5.8 mph - N/A   Clear
5:35 PM 14.0 °F 3.9 °F -2.2 °F 49% 29.91 in 10.0 mi SE 6.9 mph - N/A   Clear
5:55 PM 14.0 °F 5.1 °F -2.2 °F 49% 29.92 in 10.0 mi East 5.8 mph - N/A   Clear
6:15 PM 14.0 °F 8.2 °F -0.4 °F 53% 29.93 in 10.0 mi ESE 3.5 mph - N/A   Clear
6:35 PM 12.2 °F - -2.2 °F 53% 29.93 in 10.0 mi Calm Calm - N/A   Clear
6:55 PM 12.2 °F - -4.0 °F 48% 29.93 in 10.0 mi Calm Calm - N/A   Clear
7:15 PM 12.2 °F 6.1 °F -2.2 °F 53% 29.94 in 10.0 mi NNE 3.5 mph - N/A   Clear
7:35 PM 12.2 °F - -4.0 °F 48% 29.94 in 10.0 mi Calm Calm - N/A   Clear
7:55 PM 12.2 °F - -4.0 °F 48% 29.94 in 10.0 mi Calm Calm - N/A   Clear
8:15 PM 12.2 °F 6.1 °F -4.0 °F 48% 29.94 in 10.0 mi East 3.5 mph - N/A   Clear
8:35 PM 12.2 °F 6.1 °F -4.0 °F 48% 29.94 in 10.0 mi ESE 3.5 mph - N/A   Clear
8:55 PM 12.2 °F 6.1 °F -4.0 °F 48% 29.94 in 10.0 mi SSE 3.5 mph - N/A   Clear
9:15 PM 12.2 °F - -2.2 °F 53% 29.95 in 10.0 mi Calm Calm - N/A   Clear
9:35 PM 12.2 °F 6.1 °F -2.2 °F 53% 29.94 in 10.0 mi ESE 3.5 mph - N/A   Scattered Clouds
9:55 PM 12.2 °F - -2.2 °F 53% 29.94 in 10.0 mi Calm Calm - N/A   Mostly Cloudy
10:15 PM 14.0 °F - -4.0 °F 45% 29.95 in 10.0 mi Calm Calm - N/A   Overcast
10:35 PM 14.0 °F - -4.0 °F 45% 29.95 in 10.0 mi Calm Calm - N/A   Overcast
10:55 PM 15.8 °F 10.2 °F -4.0 °F 41% 29.95 in 10.0 mi ESE 3.5 mph - N/A   Scattered Clouds
11:15 PM 14.0 °F - -2.2 °F 49% 29.94 in 10.0 mi Calm Calm - N/A   Mostly Cloudy
11:35 PM 14.0 °F 8.2 °F -2.2 °F 49% 29.93 in 10.0 mi East 3.5 mph - N/A   Overcast
11:55 PM 15.8 °F - -2.2 °F 45% 29.93 in 10.0 mi Calm Calm - N/A   Overcast